| time (UTC) | temp C | wind direction | speed KPH | gust KPH | rain 1hr cm | rain 24hr cm | rain mn cm | humidity % | barometer mb |
| 20260504151026 | 15 | 30 | 29.0 | 40.2 | 0.00 | 0.00 | 0.00 | 48 | 1007.1 |
| 20260504150535 | 14 | 27 | 25.7 | 40.2 | 0.00 | 0.00 | 0.00 | 47 | 1006.8 |
| 20260504150125 | 15 | 30 | 35.4 | 40.2 | 0.00 | 0.00 | 0.00 | 43 | 1006.8 |
| 20260504141125 | 16 | 243 | 8.0 | 17.7 | 0.00 | 0.00 | 0.00 | 42 | 1005.1 |
| 20260504140724 | 16 | 254 | 11.3 | 17.7 | 0.00 | 0.00 | 0.00 | 42 | 1005.1 |
| 20260504140239 | 16 | 240 | 8.0 | 16.1 | 0.00 | 0.00 | 0.00 | 43 | 1005.1 |
| 20260504130722 | 10 | 291 | 8.0 | 12.9 | 0.00 | 0.00 | 0.00 | 62 | 1005.4 |
| 20260504130243 | 8 | 253 | 8.0 | 14.5 | 0.00 | 0.00 | 0.00 | 63 | 1005.4 |
| 20260504120221 | 6 | 257 | 6.4 | 11.3 | 0.00 | 0.00 | 0.00 | 70 | 1005.4 |
| 20260504110519 | 6 | 273 | 4.8 | 14.5 | 0.00 | 0.00 | 0.00 | 75 | 1005.4 |
| 20260504100543 | 6 | 262 | 9.7 | 14.5 | 0.00 | 0.00 | 0.00 | 76 | 1005.8 |
| 20260504100117 | 6 | 246 | 4.8 | 16.1 | 0.00 | 0.00 | 0.00 | 76 | 1005.8 |
| 20260504081715 | 5 | 266 | 4.8 | 9.7 | 0.00 | 0.00 | 0.00 | 81 | 1006.4 |
| 20260504081216 | 5 | 275 | 6.4 | 11.3 | 0.00 | 0.00 | 0.00 | 81 | 1006.4 |
| 20260504080743 | 5 | 273 | 6.4 | 11.3 | 0.00 | 0.00 | 0.00 | 82 | 1006.4 |
| 20260504080341 | 5 | 285 | 6.4 | 11.3 | 0.00 | 0.00 | 0.00 | 82 | 1006.4 |
| 20260504070312 | 5 | 284 | 3.2 | 6.4 | 0.00 | 0.00 | 0.00 | 83 | 1006.8 |
| 20260504050340 | 7 | 246 | 4.8 | 12.9 | 0.00 | 0.00 | 0.00 | 79 | 1007.5 |
| 20260504045839 | 7 | 202 | 6.4 | 9.7 | 0.00 | 0.00 | 0.00 | 78 | 1007.5 |
| 20260504045412 | 7 | 201 | 3.2 | 9.7 | 0.00 | 0.00 | 0.00 | 80 | 1007.8 |
| 20260504045014 | 7 | 194 | 8.0 | 9.7 | 0.00 | 0.00 | 0.00 | 80 | 1007.8 |
| 20260504044515 | 7 | 161 | 8.0 | 8.0 | 0.00 | 0.00 | 0.00 | 81 | 1007.8 |
| 20260504044042 | 6 | 159 | 3.2 | 4.8 | 0.00 | 0.00 | 0.00 | 79 | 1007.8 |
| 20260504043641 | 6 | 159 | 3.2 | 4.8 | 0.00 | 0.00 | 0.00 | 76 | 1007.8 |
| 20260504043210 | 6 | 159 | 1.6 | 8.0 | 0.00 | 0.00 | 0.00 | 75 | 1007.8 |
| 20260504042710 | 6 | 159 | 6.4 | 8.0 | 0.00 | 0.00 | 0.00 | 76 | 1007.8 |
| 20260504042213 | 7 | 159 | 3.2 | 3.2 | 0.00 | 0.00 | 0.00 | 76 | 1007.8 |
| 20260504041736 | 7 | 159 | 1.6 | 3.2 | 0.00 | 0.00 | 0.00 | 77 | 1007.8 |
| 20260504041239 | 7 | 159 | 0.0 | 3.2 | 0.00 | 0.00 | 0.00 | 74 | 1008.1 |
| 20260504040839 | 7 | 159 | 1.6 | 3.2 | 0.00 | 0.00 | 0.00 | 74 | 1008.1 |
| 20260504040410 | 7 | 159 | 1.6 | 3.2 | 0.00 | 0.00 | 0.00 | 72 | 1008.1 |
| 20260504035913 | 7 | 159 | 0.0 | 4.8 | 0.00 | 0.00 | 0.00 | 72 | 1008.1 |
| 20260504035516 | 8 | 159 | 1.6 | 4.8 | 0.00 | 0.00 | 0.00 | 72 | 1008.1 |
| 20260504035037 | 8 | 159 | 3.2 | 6.4 | 0.00 | 0.00 | 0.00 | 72 | 1008.1 |
| 20260504034612 | 8 | 159 | 3.2 | 6.4 | 0.00 | 0.00 | 0.00 | 70 | 1008.1 |
| 20260504034136 | 8 | 159 | 1.6 | 3.2 | 0.00 | 0.00 | 0.00 | 70 | 1008.1 |
| 20260504033714 | 8 | 159 | 0.0 | 3.2 | 0.00 | 0.00 | 0.00 | 70 | 1008.1 |
| 20260504033311 | 9 | 159 | 3.2 | 3.2 | 0.00 | 0.00 | 0.00 | 71 | 1008.1 |
| 20260504032811 | 10 | 159 | 1.6 | 3.2 | 0.00 | 0.00 | 0.00 | 71 | 1008.1 |
| 20260504032311 | 10 | 159 | 0.0 | 3.2 | 0.00 | 0.00 | 0.00 | 71 | 1008.1 |
| 20260504031747 | 10 | 159 | 0.0 | 8.0 | 0.00 | 0.00 | 0.00 | 71 | 1008.1 |
| 20260504031242 | 10 | 159 | 6.4 | 8.0 | 0.00 | 0.00 | 0.00 | 72 | 1008.1 |
| 20260504030813 | 10 | 165 | 6.4 | 9.7 | 0.00 | 0.00 | 0.00 | 71 | 1008.1 |
| 20260504030316 | 10 | 165 | 0.0 | 9.7 | 0.00 | 0.00 | 0.00 | 69 | 1008.5 |
| 20260504025811 | 10 | 165 | 0.0 | 4.8 | 0.00 | 0.00 | 0.00 | 67 | 1008.1 |
| 20260504025341 | 11 | 166 | 4.8 | 6.4 | 0.00 | 0.00 | 0.00 | 66 | 1008.1 |
| 20260504024837 | 11 | 166 | 0.0 | 4.8 | 0.00 | 0.00 | 0.00 | 66 | 1008.5 |
| 20260504024339 | 11 | 166 | 0.0 | 4.8 | 0.00 | 0.00 | 0.00 | 65 | 1008.5 |
| 20260504023912 | 11 | 170 | 3.2 | 8.0 | 0.00 | 0.00 | 0.00 | 65 | 1008.1 |
| 20260504023514 | 11 | 170 | 1.6 | 8.0 | 0.00 | 0.00 | 0.00 | 63 | 1008.5 |
| 20260504023012 | 12 | 170 | 8.0 | 9.7 | 0.00 | 0.00 | 0.00 | 64 | 1008.1 |
| 20260504022515 | 12 | 26 | 1.6 | 16.1 | 0.00 | 0.00 | 0.00 | 64 | 1008.1 |
| 20260504022041 | 12 | 26 | 9.7 | 19.3 | 0.00 | 0.00 | 0.00 | 63 | 1008.1 |
| 20260504021614 | 12 | 12 | 12.9 | 19.3 | 0.00 | 0.00 | 0.00 | 61 | 1007.8 |
| 20260504021139 | 13 | 13 | 12.9 | 16.1 | 0.00 | 0.00 | 0.00 | 59 | 1007.8 |
| 20260504020711 | 13 | 15 | 4.8 | 12.9 | 0.00 | 0.00 | 0.00 | 57 | 1007.5 |
| 20260504020238 | 13 | 9 | 4.8 | 12.9 | 0.00 | 0.00 | 0.00 | 56 | 1007.5 |
| 20260504015818 | 13 | 33 | 9.7 | 14.5 | 0.00 | 0.00 | 0.00 | 56 | 1007.5 |
| 20260504015339 | 14 | 40 | 8.0 | 14.5 | 0.00 | 0.00 | 0.00 | 54 | 1007.5 |
| 20260504014916 | 15 | 32 | 9.7 | 14.5 | 0.00 | 0.00 | 0.00 | 53 | 1007.5 |
| 20260504014439 | 15 | 38 | 8.0 | 8.0 | 0.00 | 0.00 | 0.00 | 53 | 1007.8 |
| 20260504014016 | 15 | 346 | 1.6 | 4.8 | 0.00 | 0.00 | 0.00 | 51 | 1007.8 |
| 20260504013517 | 15 | 342 | 0.0 | 8.0 | 0.00 | 0.00 | 0.00 | 51 | 1007.8 |
| 20260504013018 | 15 | 338 | 0.0 | 9.7 | 0.00 | 0.00 | 0.00 | 51 | 1007.8 |
| 20260504012617 | 15 | 314 | 8.0 | 16.1 | 0.00 | 0.00 | 0.00 | 52 | 1008.1 |
| 20260504012137 | 15 | 11 | 4.8 | 16.1 | 0.00 | 0.00 | 0.00 | 53 | 1007.8 |
| 20260504011716 | 15 | 20 | 12.9 | 16.1 | 0.00 | 0.00 | 0.00 | 54 | 1007.8 |
| 20260504011215 | 15 | 5 | 9.7 | 17.7 | 0.00 | 0.00 | 0.00 | 55 | 1007.8 |
| 20260504010715 | 15 | 5 | 12.9 | 24.1 | 0.00 | 0.00 | 0.00 | 54 | 1007.8 |
| 20260504010236 | 15 | 19 | 12.9 | 24.1 | 0.00 | 0.00 | 0.00 | 55 | 1007.8 |
| 20260504005817 | 15 | 19 | 14.5 | 25.7 | 0.00 | 0.00 | 0.00 | 54 | 1008.1 |
| 20260504005342 | 15 | 19 | 12.9 | 25.7 | 0.00 | 0.00 | 0.00 | 54 | 1008.1 |
| 20260504004916 | 15 | 355 | 20.9 | 27.4 | 0.00 | 0.00 | 0.00 | 54 | 1008.1 |
| 20260504004439 | 15 | 355 | 17.7 | 30.6 | 0.00 | 0.00 | 0.00 | 53 | 1008.1 |
| 20260504004017 | 15 | 355 | 12.9 | 30.6 | 0.00 | 0.00 | 0.00 | 53 | 1008.1 |
| 20260504003540 | 15 | 5 | 20.9 | 32.2 | 0.00 | 0.00 | 0.00 | 52 | 1008.1 |
| 20260504003116 | 15 | 350 | 22.5 | 32.2 | 0.00 | 0.00 | 0.00 | 52 | 1008.1 |
| 20260504002637 | 15 | 5 | 16.1 | 32.2 | 0.00 | 0.00 | 0.00 | 51 | 1008.1 |
| 20260504002216 | 15 | 355 | 27.4 | 38.6 | 0.00 | 0.00 | 0.00 | 50 | 1007.8 |
| 20260504001715 | 16 | 360 | 19.3 | 38.6 | 0.00 | 0.00 | 0.00 | 49 | 1007.8 |
| 20260504001217 | 16 | 5 | 30.6 | 38.6 | 0.00 | 0.00 | 0.00 | 49 | 1007.5 |
| 20260504000741 | 16 | 5 | 20.9 | 38.6 | 0.00 | 0.00 | 0.00 | 49 | 1007.5 |
| 20260504000338 | 16 | 5 | 38.6 | 38.6 | 0.00 | 0.00 | 0.00 | 48 | 1007.8 |
| 20260503235843 | 16 | 355 | 25.7 | 40.2 | 0.00 | 0.00 | 0.00 | 48 | 1007.8 |
| 20260503235416 | 16 | 336 | 33.8 | 45.1 | 0.00 | 0.00 | 0.00 | 47 | 1007.8 |
| 20260503235014 | 16 | 337 | 30.6 | 45.1 | 0.00 | 0.00 | 0.00 | 47 | 1008.1 |
| 20260503234516 | 16 | 337 | 24.1 | 53.1 | 0.00 | 0.00 | 0.00 | 47 | 1008.1 |
| 20260503234114 | 16 | 334 | 25.7 | 56.3 | 0.00 | 0.00 | 0.00 | 45 | 1008.1 |
| 20260503233636 | 17 | 360 | 29.0 | 56.3 | 0.00 | 0.00 | 0.00 | 42 | 1008.5 |
| 20260503233214 | 18 | 360 | 27.4 | 49.9 | 0.00 | 0.00 | 0.00 | 35 | 1008.5 |
| 20260503232714 | 22 | 317 | 37.0 | 46.7 | 0.00 | 0.00 | 0.00 | 20 | 1008.1 |
| 20260503232216 | 23 | 253 | 8.0 | 19.3 | 0.00 | 0.00 | 0.00 | 20 | 1007.1 |
| 20260503231742 | 23 | 190 | 14.5 | 17.7 | 0.00 | 0.00 | 0.00 | 20 | 1007.1 |
| 20260503231238 | 23 | 214 | 1.6 | 22.5 | 0.00 | 0.00 | 0.00 | 20 | 1007.1 |
| 20260503230837 | 23 | 200 | 9.7 | 22.5 | 0.00 | 0.00 | 0.00 | 20 | 1007.1 |
| 20260503230413 | 23 | 170 | 12.9 | 22.5 | 0.00 | 0.00 | 0.00 | 21 | 1007.1 |
| 20260503225913 | 23 | 193 | 8.0 | 22.5 | 0.00 | 0.00 | 0.00 | 20 | 1007.1 |
| 20260503225513 | 23 | 236 | 4.8 | 14.5 | 0.00 | 0.00 | 0.00 | 20 | 1007.1 |
| 20260503225042 | 23 | 238 | 12.9 | 19.3 | 0.00 | 0.00 | 0.00 | 20 | 1007.1 |
| 20260503224614 | 23 | 222 | 4.8 | 25.7 | 0.00 | 0.00 | 0.00 | 20 | 1007.1 |
| 20260503224142 | 23 | 250 | 14.5 | 25.7 | 0.00 | 0.00 | 0.00 | 20 | 1007.1 |
| 20260503223713 | 23 | 210 | 8.0 | 19.3 | 0.00 | 0.00 | 0.00 | 21 | 1007.5 |
| 20260503223238 | 23 | 204 | 6.4 | 19.3 | 0.00 | 0.00 | 0.00 | 20 | 1007.5 |
| 20260503222812 | 23 | 211 | 8.0 | 20.9 | 0.00 | 0.00 | 0.00 | 21 | 1007.5 |
| 20260503222340 | 23 | 215 | 11.3 | 20.9 | 0.00 | 0.00 | 0.00 | 21 | 1007.5 |
| 20260503221912 | 23 | 233 | 12.9 | 16.1 | 0.00 | 0.00 | 0.00 | 21 | 1007.5 |
| 20260503221436 | 23 | 169 | 3.2 | 20.9 | 0.00 | 0.00 | 0.00 | 21 | 1007.5 |
| 20260503221013 | 23 | 150 | 14.5 | 20.9 | 0.00 | 0.00 | 0.00 | 22 | 1007.8 |
| 20260503220541 | 22 | 146 | 4.8 | 22.5 | 0.00 | 0.00 | 0.00 | 22 | 1007.8 |
| 20260503220111 | 23 | 120 | 4.8 | 19.3 | 0.00 | 0.00 | 0.00 | 22 | 1007.8 |
| 20260503215642 | 23 | 187 | 12.9 | 19.3 | 0.00 | 0.00 | 0.00 | 22 | 1007.8 |
| 20260503215214 | 23 | 240 | 16.1 | 20.9 | 0.00 | 0.00 | 0.00 | 23 | 1008.1 |
| 20260503214739 | 23 | 180 | 8.0 | 22.5 | 0.00 | 0.00 | 0.00 | 23 | 1008.1 |
| 20260503214310 | 23 | 317 | 4.8 | 27.4 | 0.00 | 0.00 | 0.00 | 23 | 1008.5 |
| 20260503213843 | 23 | 182 | 11.3 | 27.4 | 0.00 | 0.00 | 0.00 | 23 | 1008.5 |
| 20260503213412 | 23 | 200 | 14.5 | 19.3 | 0.00 | 0.00 | 0.00 | 24 | 1008.5 |
| 20260503212913 | 23 | 217 | 12.9 | 19.3 | 0.00 | 0.00 | 0.00 | 24 | 1008.5 |
| 20260503212515 | 22 | 197 | 16.1 | 20.9 | 0.00 | 0.00 | 0.00 | 25 | 1008.8 |
| 20260503212037 | 22 | 103 | 4.8 | 12.9 | 0.00 | 0.00 | 0.00 | 25 | 1008.8 |
| 20260503211611 | 22 | 101 | 4.8 | 12.9 | 0.00 | 0.00 | 0.00 | 24 | 1009.1 |
| 20260503211138 | 22 | 177 | 6.4 | 17.7 | 0.00 | 0.00 | 0.00 | 25 | 1009.1 |
| 20260503210712 | 22 | 89 | 4.8 | 19.3 | 0.00 | 0.00 | 0.00 | 25 | 1009.5 |
| 20260503210239 | 22 | 153 | 4.8 | 19.3 | 0.00 | 0.00 | 0.00 | 24 | 1009.5 |
| 20260503205812 | 22 | 232 | 6.4 | 22.5 | 0.00 | 0.00 | 0.00 | 25 | 1009.5 |
| 20260503205336 | 22 | 190 | 16.1 | 22.5 | 0.00 | 0.00 | 0.00 | 25 | 1009.8 |
| 20260503204913 | 22 | 153 | 4.8 | 14.5 | 0.00 | 0.00 | 0.00 | 26 | 1009.8 |
| 20260503204442 | 22 | 207 | 1.6 | 14.5 | 0.00 | 0.00 | 0.00 | 26 | 1009.8 |
| 20260503203914 | 22 | 160 | 8.0 | 17.7 | 0.00 | 0.00 | 0.00 | 26 | 1009.8 |
| 20260503203343 | 22 | 165 | 9.7 | 16.1 | 0.00 | 0.00 | 0.00 | 26 | 1010.2 |
| 20260503202842 | 22 | 226 | 4.8 | 27.4 | 0.00 | 0.00 | 0.00 | 26 | 1010.2 |
| 20260503202438 | 22 | 192 | 20.9 | 25.7 | 0.00 | 0.00 | 0.00 | 27 | 1010.2 |
| 20260503202016 | 22 | 196 | 8.0 | 17.7 | 0.00 | 0.00 | 0.00 | 27 | 1010.2 |
| 20260503201511 | 21 | 139 | 6.4 | 19.3 | 0.00 | 0.00 | 0.00 | 27 | 1010.2 |
| 20260503201039 | 21 | 140 | 11.3 | 17.7 | 0.00 | 0.00 | 0.00 | 27 | 1010.2 |
| 20260503200638 | 21 | 178 | 0.0 | 20.9 | 0.00 | 0.00 | 0.00 | 26 | 1010.5 |
| 20260503200213 | 22 | 239 | 12.9 | 20.9 | 0.00 | 0.00 | 0.00 | 26 | 1010.5 |
| 20260503195715 | 22 | 153 | 8.0 | 20.9 | 0.00 | 0.00 | 0.00 | 26 | 1010.5 |
| 20260503195313 | 22 | 130 | 12.9 | 12.9 | 0.00 | 0.00 | 0.00 | 27 | 1010.5 |
| 20260503194840 | 22 | 284 | 9.7 | 14.5 | 0.00 | 0.00 | 0.00 | 27 | 1010.8 |
| 20260503194343 | 21 | 178 | 6.4 | 14.5 | 0.00 | 0.00 | 0.00 | 27 | 1010.8 |
| 20260503193941 | 21 | 248 | 12.9 | 12.9 | 0.00 | 0.00 | 0.00 | 28 | 1010.8 |
| 20260503193515 | 21 | 219 | 9.7 | 16.1 | 0.00 | 0.00 | 0.00 | 28 | 1010.8 |
| 20260503193036 | 21 | 138 | 12.9 | 16.1 | 0.00 | 0.00 | 0.00 | 29 | 1011.2 |
| 20260503192613 | 20 | 36 | 4.8 | 17.7 | 0.00 | 0.00 | 0.00 | 29 | 1011.2 |
| 20260503192140 | 20 | 184 | 1.6 | 17.7 | 0.00 | 0.00 | 0.00 | 28 | 1011.2 |
| 20260503191712 | 21 | 137 | 14.5 | 16.1 | 0.00 | 0.00 | 0.00 | 28 | 1011.2 |
| 20260503191240 | 21 | 193 | 3.2 | 16.1 | 0.00 | 0.00 | 0.00 | 28 | 1011.2 |
| 20260503190811 | 21 | 223 | 1.6 | 19.3 | 0.00 | 0.00 | 0.00 | 28 | 1011.5 |
| 20260503190337 | 21 | 175 | 9.7 | 19.3 | 0.00 | 0.00 | 0.00 | 28 | 1011.5 |
| 20260503185911 | 21 | 208 | 11.3 | 16.1 | 0.00 | 0.00 | 0.00 | 29 | 1011.5 |
| 20260503185438 | 20 | 209 | 9.7 | 16.1 | 0.00 | 0.00 | 0.00 | 30 | 1011.5 |
| 20260503185012 | 20 | 128 | 11.3 | 17.7 | 0.00 | 0.00 | 0.00 | 30 | 1011.5 |
| 20260503184512 | 20 | 142 | 8.0 | 17.7 | 0.00 | 0.00 | 0.00 | 30 | 1011.5 |
| 20260503184015 | 20 | 118 | 4.8 | 11.3 | 0.00 | 0.00 | 0.00 | 30 | 1011.5 |
| 20260503183444 | 20 | 305 | 4.8 | 19.3 | 0.00 | 0.00 | 0.00 | 31 | 1011.9 |
| 20260503182940 | 20 | 243 | 3.2 | 19.3 | 0.00 | 0.00 | 0.00 | 30 | 1011.9 |
| 20260503182513 | 20 | 188 | 1.6 | 16.1 | 0.00 | 0.00 | 0.00 | 31 | 1011.9 |
| 20260503182011 | 19 | 180 | 14.5 | 16.1 | 0.00 | 0.00 | 0.00 | 31 | 1011.9 |
| 20260503181513 | 19 | 82 | 3.2 | 17.7 | 0.00 | 0.00 | 0.00 | 32 | 1012.2 |
| 20260503181042 | 20 | 105 | 14.5 | 17.7 | 0.00 | 0.00 | 0.00 | 31 | 1012.2 |
| 20260503180617 | 20 | 136 | 8.0 | 12.9 | 0.00 | 0.00 | 0.00 | 32 | 1012.5 |
| 20260503180138 | 19 | 119 | 8.0 | 11.3 | 0.00 | 0.00 | 0.00 | 33 | 1012.2 |
| 20260503175712 | 18 | 57 | 3.2 | 11.3 | 0.00 | 0.00 | 0.00 | 33 | 1012.2 |
| 20260503175240 | 19 | 47 | 6.4 | 9.7 | 0.00 | 0.00 | 0.00 | 33 | 1012.5 |
| 20260503174812 | 19 | 43 | 4.8 | 16.1 | 0.00 | 0.00 | 0.00 | 34 | 1012.5 |
| 20260503174344 | 19 | 150 | 4.8 | 16.1 | 0.00 | 0.00 | 0.00 | 32 | 1012.5 |
| 20260503173911 | 18 | 104 | 9.7 | 16.1 | 0.00 | 0.00 | 0.00 | 33 | 1012.5 |
| 20260503173438 | 18 | 134 | 8.0 | 16.1 | 0.00 | 0.00 | 0.00 | 33 | 1012.9 |
| 20260503173016 | 18 | 221 | 3.2 | 19.3 | 0.00 | 0.00 | 0.00 | 34 | 1012.5 |
| 20260503172542 | 18 | 146 | 4.8 | 19.3 | 0.00 | 0.00 | 0.00 | 34 | 1012.9 |
| 20260503172113 | 18 | 73 | 12.9 | 17.7 | 0.00 | 0.00 | 0.00 | 35 | 1012.9 |
| 20260503171641 | 18 | 38 | 8.0 | 14.5 | 0.00 | 0.00 | 0.00 | 36 | 1013.2 |
| 20260503171216 | 18 | 84 | 6.4 | 14.5 | 0.00 | 0.00 | 0.00 | 35 | 1013.2 |
| 20260503170742 | 18 | 79 | 3.2 | 17.7 | 0.00 | 0.00 | 0.00 | 36 | 1013.2 |
| 20260503170311 | 18 | 13 | 4.8 | 19.3 | 0.00 | 0.00 | 0.00 | 35 | 1013.5 |